"Pseudo-MPEC" for A11c8HQ

Created 2024 Oct 2 12:22:02 UT using Find_Orb

Click here for an explanation of pseudo-MPECs

 
 Astrometry: 
     A11c8HQ* C2024 10 01.91241800 35 24.977-00 29 59.39   ~A20M 13.25oVNEOCPM22
     A11c8HQ  C2024 10 01.91422300 35 55.634-00 27 43.31   ~A20M 13.25oVNEOCPM22
     A11c8HQ  C2024 10 01.91739500 36 49.447-00 23 43.37   ~A20M 13.24oVNEOCPM22
     A11c8HQ  C2024 10 01.92283200 38 21.434-00 16 50.56   ~A20M 13.23oVNEOCPM22

Station data:
(M22) ATLAS South Africa, Sutherland  (S32.380156 E20.810590)  South Africa.
   Observers L. Denneau, R. Siverd, J. Tonry, H. Weiland. Measurers L.
   Denneau, N. Erasmus, A. Fitzsimmons, A. Lawrence, J. Robinson, R. Siverd,
   J. Tonry, H. Weiland. 0.5-m reflector + CCD.

Orbital elements:  A11c8HQ
   Perigee 2024 Oct 2.08335 +/- 20.7 TT =  2:00:01 (JD 2460585.58335)
Epoch 2024 Oct  2.0 TT = JDT 2460585.5                           AutoNEOCP
q437816.929 +/- 4.01e+6             (J2000 equator)
H   25.83 G 0.15                    Peri.   10.07937 +/- 37
                                    Node    12.06901 +/- 42
e  55.2880696 +/- 0.232             Incl.   15.61975 +/- 0.6
From 4 observations 2024 Oct. 1 (15.0 min); mean residual 1".20
Residuals in arcseconds: 
241001 M22  1.8-  .16+    241001 M22  2.5+  .16-    
241001 M22  .55+  .10-    241001 M22  1.3-  .09+    

Ephemerides (geocentric):
Date (UTC) HH   RA             Dec           delta  r     elong  mag " sig PA
---- --------  ------------   ------------  ------ ------ -----  --- --------
2024 10 02 12  03 26 37.159   +10 06 05.04  507076 1.0033 136.9 15.2  32d  95
2024 10 02 13  03 36 22.278   +10 36 02.59  520420 1.0032 134.5 15.3  33d  95
2024 10 02 14  03 45 38.919   +11 03 24.83  534647 1.0032 132.2 15.4  33d  95
2024 10 02 15  03 54 27.455   +11 28 20.79  549689 1.0031 130.1 15.5  34d  95
2024 10 02 16  04 02 48.543   +11 51 00.39  565481 1.0031 128.1 15.6  34d  95
2024 10 02 17  04 10 43.065   +12 11 33.89  581960 1.0030 126.2 15.8  35d  94
2024 10 02 18  04 18 12.057   +12 30 11.57  599070 1.0030 124.3 15.9  35d  94
2024 10 02 19  04 25 16.662   +12 47 03.46  616757 1.0029 122.6 16.0  35d  94
2024 10 02 20  04 31 58.084   +13 02 19.13  634973 1.0029 121.0 16.1  36d  94
2024 10 02 21  04 38 17.556   +13 16 07.58  653674 1.0029 119.5 16.2  36d  94
2024 10 02 22  04 44 16.308   +13 28 37.18  672818 1.0028 118.1 16.3  36d  94
2024 10 02 23  04 49 55.553   +13 39 55.63  692368 1.0028 116.8 16.4  36d  94
2024 10 03 00  04 55 16.468   +13 50 09.96  712290 1.0027 115.5 16.5  37d  94
2024 10 03 01  05 00 20.185   +13 59 26.58  732555 1.0027 114.3 16.6  37d  94
2024 10 03 02  05 05 07.783   +14 07 51.25  753133 1.0026 113.2 16.7  37d  94
2024 10 03 03  05 09 40.285   +14 15 29.20  773999 1.0026 112.1 16.8  37d  94
2024 10 03 04  05 13 58.657   +14 22 25.11  795131 1.0025 111.1 16.9  37d  94
2024 10 03 05  05 18 03.804   +14 28 43.18  816508 1.0025 110.2 17.0  37d  94
2024 10 03 06  05 21 56.576   +14 34 27.18  838110 1.0024 109.3 17.0  37d  94
2024 10 03 07  05 25 37.767   +14 39 40.48  859920 1.0024 108.4 17.1  37d  94
2024 10 03 08  05 29 08.116   +14 44 26.10  881923 1.0024 107.6 17.2  38d  94
2024 10 03 09  05 32 28.312   +14 48 46.73  904105 1.0023 106.8 17.3  38d  94
2024 10 03 10  05 35 38.996   +14 52 44.79  926452 1.0023 106.1 17.4  38d  94
2024 10 03 11  05 38 40.764   +14 56 22.44  948952 1.0022 105.4 17.4  38d  93
2024 10 03 12  05 41 34.168   +14 59 41.62  971595 1.0022 104.8 17.5  38d  93
2024 10 03 13  05 44 19.723   +15 02 44.05  994370 1.0021 104.1 17.6  38d  93
2024 10 03 14  05 46 57.907   +15 05 31.30  .00680 1.0021 103.5 17.7  38d  93
2024 10 03 15  05 49 29.163   +15 08 04.75  .00695 1.0021 103.0 17.7  38d  93
2024 10 03 16  05 51 53.902   +15 10 25.67  .00711 1.0020 102.4 17.8  38d  93
2024 10 03 17  05 54 12.508   +15 12 35.16  .00726 1.0020 101.9 17.9  38d  93
2024 10 03 18  05 56 25.337   +15 14 34.26  .00742 1.0019 101.4 17.9  38d  93
2024 10 03 19  05 58 32.719   +15 16 23.86  .00758 1.0019 101.0 18.0  38d  93
2024 10 03 20  06 00 34.964   +15 18 04.81  .00773 1.0019 100.5 18.0  38d  93
2024 10 03 21  06 02 32.358   +15 19 37.82  .00789 1.0018 100.1 18.1  38d  93
2024 10 03 22  06 04 25.168   +15 21 03.59  .00805 1.0018  99.7 18.2  38d  93
2024 10 03 23  06 06 13.643   +15 22 22.72  .00821 1.0017  99.3 18.2  38d  93
2024 10 04 00  06 07 58.017   +15 23 35.75  .00837 1.0017  98.9 18.3  38d  93
2024 10 04 01  06 09 38.507   +15 24 43.19  .00853 1.0017  98.5 18.3  38d  93
2024 10 04 02  06 11 15.315   +15 25 45.50  .00868 1.0016  98.2 18.4  38d  93
2024 10 04 03  06 12 48.631   +15 26 43.07  .00884 1.0016  97.9 18.4  38d  93
2024 10 04 04  06 14 18.633   +15 27 36.30  .00901 1.0015  97.5 18.5  38d  93
2024 10 04 05  06 15 45.488   +15 28 25.51  .00917 1.0015  97.2 18.5  38d  93
2024 10 04 06  06 17 09.350   +15 29 11.03  .00933 1.0015  96.9 18.6  38d  93
2024 10 04 07  06 18 30.367   +15 29 53.14  .00949 1.0014  96.6 18.6  38d  93
2024 10 04 08  06 19 48.675   +15 30 32.09  .00965 1.0014  96.4 18.7  38d  93
2024 10 04 09  06 21 04.404   +15 31 08.13  .00981 1.0014  96.1 18.7  38d  93
2024 10 04 10  06 22 17.674   +15 31 41.47  .00997 1.0013  95.9 18.8  38d  93
2024 10 04 11  06 23 28.599   +15 32 12.31  .01014 1.0013  95.6 18.8  38d  93